| time (UTC) | temp C | wind direction | speed KPH | gust KPH | rain 1hr cm | rain 24hr cm | rain mn cm | humidity % | barometer mb |
| 20260902165341 | 18 | 219 | 1.6 | 1.6 | 0.00 | 0.00 | 0.00 | 99 | 1072.6 |
| 20260902164337 | 18 | 253 | 3.2 | 3.2 | 0.00 | 0.00 | 0.00 | 99 | 1072.5 |
| 20260902163336 | 18 | 255 | 1.6 | 1.6 | 0.00 | 0.00 | 0.00 | 99 | 1072.6 |
| 20260902162336 | 18 | 260 | 1.6 | 1.6 | 0.00 | 0.00 | 0.00 | 99 | 1072.5 |
| 20260902161332 | 18 | 244 | 1.6 | 1.6 | 0.00 | 0.00 | 0.00 | 99 | 1072.4 |
| 20260902160329 | 18 | 228 | 1.6 | 3.2 | 0.00 | 0.00 | 0.00 | 99 | 1072.3 |
| 20260902155326 | 18 | 179 | 3.2 | 3.2 | 0.00 | 0.00 | 0.00 | 99 | 1072.6 |
| 20260902154323 | 18 | 239 | 3.2 | 3.2 | 0.00 | 0.00 | 0.00 | 99 | 1072.6 |
| 20260902153320 | 18 | 239 | 4.8 | 4.8 | 0.00 | 0.00 | 0.00 | 99 | 1072.8 |
| 20260902152318 | 18 | 173 | 4.8 | 4.8 | 0.00 | 0.00 | 0.00 | 99 | 1072.8 |
| 20260902151314 | 18 | 194 | 3.2 | 4.8 | 0.00 | 0.00 | 0.00 | 99 | 1072.7 |
| 20260902150311 | 18 | 199 | 4.8 | 8.0 | 0.00 | 0.00 | 0.00 | 99 | 1072.5 |
| 20260902145306 | 18 | 175 | 8.0 | 11.3 | 0.00 | 0.00 | 0.00 | 99 | 1072.9 |
| 20260902144303 | 18 | 211 | 3.2 | 3.2 | 0.00 | 0.00 | 0.00 | 99 | 1073.1 |
| 20260902143258 | 18 | 190 | 1.6 | 3.2 | 0.00 | 0.00 | 0.00 | 99 | 1073.0 |
| 20260902142256 | 18 | 184 | 6.4 | 9.7 | 0.00 | 0.00 | 0.00 | 99 | 1073.0 |
| 20260902141252 | 18 | 208 | 1.6 | 3.2 | 0.00 | 0.00 | 0.00 | 99 | 1072.9 |
| 20260902140247 | 18 | 238 | 1.6 | 1.6 | 0.00 | 0.00 | 0.00 | 99 | 1073.3 |
| 20260902135242 | 18 | 219 | 3.2 | 3.2 | 0.00 | 0.00 | 0.00 | 99 | 1073.1 |
| 20260902134237 | 18 | 272 | 0.0 | 1.6 | 0.00 | 0.00 | 0.00 | 99 | 1073.3 |
| 20260902133237 | 18 | 243 | 3.2 | 4.8 | 0.00 | 0.00 | 0.00 | 99 | 1073.3 |
| 20260902132234 | 18 | 198 | 4.8 | 8.0 | 0.00 | 0.00 | 0.00 | 99 | 1072.7 |
| 20260902131232 | 18 | 233 | 1.6 | 1.6 | 0.00 | 0.00 | 0.00 | 99 | 1073.0 |
| 20260902130227 | 18 | 260 | 1.6 | 1.6 | 0.00 | 0.00 | 0.00 | 99 | 1073.1 |
| 20260902125224 | 18 | 256 | 0.0 | 0.0 | 0.00 | 0.00 | 0.00 | 99 | 1073.4 |
| 20260902124221 | 18 | 243 | 1.6 | 1.6 | 0.00 | 0.00 | 0.00 | 99 | 1073.1 |
| 20260902123218 | 18 | 248 | 1.6 | 1.6 | 0.00 | 0.00 | 0.00 | 99 | 1073.0 |
| 20260902122213 | 18 | 251 | 1.6 | 1.6 | 0.00 | 0.00 | 0.00 | 99 | 1072.9 |
| 20260902121208 | 18 | 247 | 1.6 | 1.6 | 0.00 | 0.00 | 0.00 | 99 | 1072.6 |
| 20260902120206 | 18 | 176 | 6.4 | 9.7 | 0.00 | 0.00 | 0.00 | 99 | 1072.6 |
| 20260902115202 | 18 | 248 | 3.2 | 3.2 | 0.00 | 0.00 | 0.00 | 99 | 1072.6 |
| 20260902114159 | 18 | 207 | 3.2 | 3.2 | 0.00 | 0.00 | 0.00 | 99 | 1072.4 |
| 20260902113155 | 18 | 191 | 3.2 | 3.2 | 0.00 | 0.00 | 0.00 | 99 | 1072.6 |
| 20260902112152 | 18 | 232 | 1.6 | 3.2 | 0.00 | 0.00 | 0.00 | 99 | 1072.3 |
| 20260902111148 | 18 | 253 | 1.6 | 3.2 | 0.00 | 0.00 | 0.00 | 99 | 1072.1 |
| 20260902110146 | 18 | 236 | 1.6 | 1.6 | 0.00 | 0.00 | 0.00 | 99 | 1072.3 |
| 20260902105141 | 18 | 200 | 4.8 | 4.8 | 0.00 | 0.00 | 0.00 | 99 | 1072.6 |
| 20260902104137 | 18 | 259 | 0.0 | 0.0 | 0.00 | 0.00 | 0.00 | 99 | 1072.6 |
| 20260902103132 | 18 | 233 | 1.6 | 1.6 | 0.00 | 0.00 | 0.00 | 99 | 1072.5 |
| 20260902102131 | 18 | 220 | 1.6 | 1.6 | 0.00 | 0.00 | 0.00 | 99 | 1072.8 |
| 20260902101131 | 18 | 246 | 0.0 | 0.0 | 0.00 | 0.00 | 0.00 | 99 | 1072.6 |
| 20260902100127 | 18 | 199 | 1.6 | 1.6 | 0.00 | 0.00 | 0.00 | 99 | 1072.4 |
| 20260902095126 | 18 | 259 | 0.0 | 0.0 | 0.00 | 0.00 | 0.00 | 99 | 1072.8 |
| 20260902094123 | 18 | 275 | 0.0 | 0.0 | 0.00 | 0.00 | 0.00 | 99 | 1072.8 |
| 20260902093118 | 18 | 217 | 1.6 | 1.6 | 0.00 | 0.00 | 0.00 | 99 | 1072.6 |
| 20260902092113 | 18 | 226 | 0.0 | 1.6 | 0.00 | 0.00 | 0.00 | 99 | 1072.6 |
| 20260902091110 | 18 | 204 | 1.6 | 1.6 | 0.00 | 0.00 | 0.00 | 99 | 1072.7 |
| 20260902090105 | 18 | 155 | 3.2 | 3.2 | 0.00 | 0.00 | 0.00 | 99 | 1072.7 |
| 20260902085100 | 18 | 220 | 1.6 | 1.6 | 0.00 | 0.00 | 0.00 | 99 | 1072.7 |
| 20260902084058 | 18 | 177 | 1.6 | 3.2 | 0.00 | 0.00 | 0.00 | 99 | 1072.8 |
| 20260902083053 | 18 | 179 | 4.8 | 4.8 | 0.00 | 0.00 | 0.00 | 99 | 1072.6 |
| 20260902082051 | 18 | 169 | 3.2 | 3.2 | 0.00 | 0.00 | 0.00 | 99 | 1072.8 |
| 20260902081047 | 18 | 193 | 4.8 | 4.8 | 0.00 | 0.00 | 0.00 | 99 | 1072.8 |
| 20260902080045 | 18 | 216 | 1.6 | 1.6 | 0.00 | 0.00 | 0.00 | 99 | 1072.6 |
| 20260902075040 | 18 | 184 | 1.6 | 3.2 | 0.00 | 0.00 | 0.00 | 99 | 1072.6 |
| 20260902074036 | 18 | 125 | 4.8 | 4.8 | 0.00 | 0.00 | 0.00 | 99 | 1072.8 |
| 20260902073034 | 18 | 186 | 1.6 | 3.2 | 0.00 | 0.00 | 0.00 | 99 | 1072.6 |
| 20260902072032 | 18 | 145 | 4.8 | 4.8 | 0.00 | 0.00 | 0.00 | 99 | 1072.8 |
| 20260902071028 | 17 | 156 | 3.2 | 3.2 | 0.00 | 0.00 | 0.00 | 99 | 1072.7 |
| 20260902070023 | 17 | 225 | 1.6 | 1.6 | 0.00 | 0.00 | 0.00 | 99 | 1072.7 |
| 20260902065018 | 17 | 195 | 3.2 | 3.2 | 0.00 | 0.00 | 0.00 | 99 | 1072.5 |
| 20260902064015 | 17 | 250 | 1.6 | 1.6 | 0.00 | 0.00 | 0.00 | 99 | 1072.5 |
| 20260902063010 | 17 | 206 | 1.6 | 1.6 | 0.00 | 0.00 | 0.00 | 99 | 1072.7 |
| 20260902062010 | 17 | 238 | 0.0 | 1.6 | 0.00 | 0.00 | 0.00 | 99 | 1072.6 |
| 20260902061006 | 16 | 293 | 0.0 | 0.0 | 0.00 | 0.00 | 0.00 | 99 | 1072.7 |
| 20260902060004 | 16 | 304 | 0.0 | 0.0 | 0.00 | 0.00 | 0.00 | 99 | 1072.7 |
| 20260902055001 | 16 | 303 | 0.0 | 0.0 | 0.00 | 0.00 | 0.00 | 99 | 1072.7 |
| 20260902053957 | 16 | 304 | 0.0 | 0.0 | 0.00 | 0.00 | 0.00 | 99 | 1072.6 |
| 20260902052957 | 16 | 302 | 0.0 | 0.0 | 0.00 | 0.00 | 0.00 | 99 | 1072.5 |
| 20260902051953 | 16 | 310 | 0.0 | 0.0 | 0.00 | 0.00 | 0.00 | 99 | 1072.5 |
| 20260902050952 | 16 | 305 | 0.0 | 0.0 | 0.00 | 0.00 | 0.00 | 99 | 1072.6 |
| 20260902045947 | 16 | 294 | 0.0 | 0.0 | 0.00 | 0.00 | 0.00 | 99 | 1072.5 |
| 20260902044945 | 16 | 293 | 0.0 | 0.0 | 0.00 | 0.00 | 0.00 | 99 | 1072.4 |
| 20260902043942 | 15 | 296 | 0.0 | 1.6 | 0.00 | 0.00 | 0.00 | 99 | 1072.3 |
| 20260902042937 | 15 | 303 | 1.6 | 1.6 | 0.00 | 0.00 | 0.00 | 99 | 1072.2 |
| 20260902041932 | 15 | 303 | 1.6 | 1.6 | 0.00 | 0.00 | 0.00 | 99 | 1072.2 |
| 20260902040932 | 16 | 303 | 0.0 | 0.0 | 0.00 | 0.00 | 0.00 | 99 | 1072.2 |
| 20260902035931 | 16 | 300 | 0.0 | 0.0 | 0.00 | 2.03 | 2.03 | 99 | 1072.0 |
| 20260902034926 | 16 | 305 | 0.0 | 0.0 | 0.00 | 2.03 | 2.03 | 99 | 1072.2 |
| 20260902033926 | 16 | 302 | 0.0 | 0.0 | 0.00 | 2.03 | 2.03 | 99 | 1072.1 |
| 20260902032925 | 16 | 304 | 1.6 | 1.6 | 0.00 | 2.03 | 2.03 | 99 | 1071.8 |
| 20260902031920 | 16 | 296 | 0.0 | 0.0 | 0.00 | 2.03 | 2.03 | 99 | 1071.9 |
| 20260902030918 | 16 | 299 | 0.0 | 0.0 | 0.00 | 2.03 | 2.03 | 99 | 1071.9 |
| 20260902025917 | 16 | 287 | 0.0 | 0.0 | 0.00 | 2.03 | 2.03 | 99 | 1071.8 |
| 20260902024913 | 16 | 287 | 0.0 | 0.0 | 0.00 | 2.03 | 2.03 | 99 | 1071.9 |
| 20260902023909 | 17 | 284 | 0.0 | 0.0 | 0.00 | 2.03 | 2.03 | 99 | 1072.1 |
| 20260902022904 | 17 | 284 | 0.0 | 0.0 | 0.00 | 2.03 | 2.03 | 99 | 1072.1 |
| 20260902021902 | 17 | 290 | 0.0 | 0.0 | 0.00 | 2.03 | 2.03 | 99 | 1072.0 |
| 20260902020857 | 17 | 288 | 0.0 | 1.6 | 0.00 | 2.03 | 2.03 | 99 | 1072.1 |
| 20260902015854 | 17 | 266 | 0.0 | 1.6 | 0.00 | 2.03 | 2.03 | 99 | 1072.1 |
| 20260902014851 | 18 | 328 | 0.0 | 1.6 | 0.00 | 2.03 | 2.03 | 99 | 1071.6 |
| 20260902013846 | 18 | 251 | 0.0 | 0.0 | 0.00 | 2.03 | 2.03 | 99 | 1071.8 |
| 20260902012843 | 18 | 270 | 0.0 | 0.0 | 0.00 | 2.03 | 2.03 | 99 | 1071.5 |
| 20260902011840 | 18 | 260 | 1.6 | 1.6 | 0.00 | 2.03 | 2.03 | 99 | 1071.3 |
| 20260902010840 | 19 | 129 | 3.2 | 3.2 | 0.00 | 2.03 | 2.03 | 99 | 1071.5 |
| 20260902005840 | 19 | 256 | 0.0 | 0.0 | 0.00 | 2.03 | 2.03 | 99 | 1071.6 |
| 20260902004836 | 19 | 222 | 1.6 | 1.6 | 0.00 | 2.03 | 2.03 | 99 | 1071.2 |
| 20260902003831 | 20 | 234 | 0.0 | 1.6 | 0.00 | 2.03 | 2.03 | 99 | 1071.1 |
| 20260902002828 | 20 | 133 | 3.2 | 3.2 | 0.00 | 2.03 | 2.03 | 99 | 1071.3 |
| 20260902001828 | 20 | 204 | 1.6 | 1.6 | 0.00 | 2.03 | 2.03 | 99 | 1071.1 |
| 20260902000824 | 20 | 258 | 0.0 | 0.0 | 0.00 | 2.03 | 2.03 | 99 | 1070.7 |
| 20260901235819 | 20 | 267 | 0.0 | 0.0 | 0.00 | 2.03 | 2.03 | 99 | 1070.6 |
| 20260901234819 | 20 | 268 | 0.0 | 0.0 | 0.00 | 2.03 | 2.03 | 98 | 1070.5 |
| 20260901233815 | 20 | 277 | 0.0 | 1.6 | 0.00 | 2.03 | 2.03 | 97 | 1070.6 |
| 20260901232812 | 21 | 269 | 1.6 | 1.6 | 0.00 | 2.03 | 2.03 | 97 | 1070.6 |
| 20260901231809 | 21 | 199 | 6.4 | 8.0 | 0.00 | 2.03 | 2.03 | 96 | 1071.0 |
| 20260901230807 | 21 | 256 | 0.0 | 0.0 | 0.00 | 2.03 | 2.03 | 96 | 1070.7 |
| 20260901225808 | 21 | 253 | 0.0 | 1.6 | 0.00 | 2.03 | 2.03 | 95 | 1070.8 |
| 20260901224803 | 21 | 244 | 1.6 | 1.6 | 0.00 | 2.03 | 2.03 | 95 | 1070.5 |
| 20260901223801 | 21 | 257 | 1.6 | 1.6 | 0.00 | 2.03 | 2.03 | 95 | 1070.7 |
| 20260901222757 | 22 | 245 | 1.6 | 1.6 | 0.00 | 2.03 | 2.03 | 94 | 1070.8 |
| 20260901221755 | 22 | 271 | 1.6 | 1.6 | 0.00 | 2.03 | 2.03 | 93 | 1070.5 |
| 20260901220756 | 22 | 223 | 3.2 | 3.2 | 0.00 | 2.03 | 2.03 | 91 | 1070.3 |
| 20260901215754 | 22 | 271 | 1.6 | 1.6 | 0.00 | 2.03 | 2.03 | 90 | 1070.3 |
| 20260901214752 | 22 | 233 | 1.6 | 1.6 | 0.00 | 2.03 | 2.03 | 90 | 1070.2 |
| 20260901213752 | 22 | 282 | 0.0 | 0.0 | 0.00 | 2.03 | 2.03 | 90 | 1070.3 |
| 20260901212752 | 22 | 265 | 0.0 | 0.0 | 0.00 | 2.03 | 2.03 | 90 | 1070.2 |
| 20260901211748 | 22 | 273 | 1.6 | 1.6 | 0.00 | 2.03 | 2.03 | 90 | 1070.3 |
| 20260901210747 | 22 | 278 | 0.0 | 0.0 | 0.00 | 2.03 | 2.03 | 91 | 1070.2 |
| 20260901205744 | 22 | 272 | 3.2 | 3.2 | 0.00 | 2.03 | 2.03 | 92 | 1070.2 |
| 20260901204739 | 22 | 254 | 1.6 | 1.6 | 0.00 | 2.03 | 2.03 | 91 | 1070.3 |
| 20260901203736 | 22 | 278 | 1.6 | 3.2 | 0.00 | 2.03 | 2.03 | 91 | 1070.1 |
| 20260901202735 | 22 | 265 | 4.8 | 8.0 | 0.00 | 2.03 | 2.03 | 91 | 1070.0 |
| 20260901201732 | 22 | 265 | 4.8 | 4.8 | 0.00 | 2.03 | 2.03 | 90 | 1070.0 |
| 20260901200732 | 22 | 264 | 3.2 | 3.2 | 0.00 | 2.03 | 2.03 | 89 | 1070.3 |
| 20260901195731 | 22 | 237 | 0.0 | 1.6 | 0.00 | 2.03 | 2.03 | 88 | 1070.1 |
| 20260901194727 | 22 | 200 | 1.6 | 1.6 | 0.00 | 2.03 | 2.03 | 88 | 1070.2 |
| 20260901193724 | 22 | 236 | 1.6 | 1.6 | 0.00 | 2.03 | 2.03 | 88 | 1070.4 |
| 20260901192723 | 22 | 236 | 1.6 | 1.6 | 0.00 | 2.03 | 2.03 | 89 | 1070.3 |
| 20260901191720 | 21 | 189 | 3.2 | 3.2 | 0.00 | 2.03 | 2.03 | 92 | 1070.2 |
| 20260901190718 | 22 | 236 | 1.6 | 1.6 | 0.00 | 2.03 | 2.03 | 92 | 1070.3 |
| 20260901185716 | 21 | 223 | 1.6 | 1.6 | 0.00 | 2.03 | 2.03 | 93 | 1070.6 |
| 20260901184716 | 21 | 248 | 0.0 | 1.6 | 0.00 | 2.03 | 2.03 | 93 | 1070.4 |
| 20260901183713 | 21 | 234 | 1.6 | 1.6 | 0.00 | 2.03 | 2.03 | 93 | 1070.4 |
| 20260901182709 | 21 | 210 | 1.6 | 1.6 | 0.00 | 2.03 | 2.03 | 94 | 1070.4 |
| 20260901181709 | 21 | 223 | 1.6 | 1.6 | 0.00 | 2.03 | 2.03 | 94 | 1070.3 |
| 20260901180709 | 21 | 237 | 1.6 | 1.6 | 0.00 | 2.03 | 2.03 | 94 | 1070.4 |
| 20260901175708 | 21 | 237 | 1.6 | 1.6 | 0.00 | 2.03 | 2.03 | 94 | 1070.1 |
| 20260901174703 | 21 | 216 | 1.6 | 3.2 | 0.00 | 2.03 | 2.03 | 94 | 1070.2 |
| 20260901173700 | 21 | 246 | 0.0 | 1.6 | 0.00 | 2.03 | 2.03 | 94 | 1070.3 |
| 20260901172657 | 20 | 245 | 1.6 | 1.6 | 0.00 | 2.03 | 2.03 | 95 | 1070.5 |
| 20260901171655 | 20 | 254 | 0.0 | 0.0 | 0.00 | 2.03 | 2.03 | 95 | 1070.3 |
| 20260901170654 | 20 | 206 | 4.8 | 4.8 | 0.00 | 2.03 | 2.03 | 95 | 1070.1 |
| 20260901165653 | 20 | 206 | 1.6 | 3.2 | 0.00 | 2.03 | 2.03 | 95 | 1070.1 |